Regional Weather Roundup
Issued by NWS

Home | Current Version | Previous Version | Graphics & Text | Print | Product List | Glossary On
Versions: 1 2 3 4 5 6 7 8 9 10 11 12 13 14 15 16 17 18 19 20 21 22 23 24 25 26 27 28 29 30 31 32 33 34 35 36 37 38 39 40 41 42 43 44 45 46 47 48 49 50
000
ASUS43 KLOT 280908
RWRIL

ILLINOIS REGIONAL WEATHER ROUNDUP
NATIONAL WEATHER SERVICE CHICAGO/ROMEOVILLE IL
400 AM CDT SUN AUG 28 2016

NOTE: "FAIR" INDICATES FEW OR NO CLOUDS BELOW 12,000 FEET WITH NO
SIGNIFICANT WEATHER AND/OR OBSTRUCTIONS TO VISIBILITY.

* THESE STATIONS ARE NOT UNDER NWS QUALITY CONTROL. THEY ALSO MAY NOT
  REPORT WEATHER SUCH AS PRECIPITATION OR FOG.

ILZ001-002-007-009-015-016-024-281000-
NORTHWEST ILLINOIS

CITY           SKY/WX    TMP DP  RH WIND       PRES   REMARKS
MOLINE         PTCLDY    69  68  96 E5        30.11R
STERLING*      CLEAR     68  68 100 CALM      30.12S FOG
SAVANNA*       PTCLDY    67  66  99 CALM      30.12S FOG
$$

ILZ003-004-008-010-011-017-018-281000-
NORTH CENTRAL ILLINOIS

CITY           SKY/WX    TMP DP  RH WIND       PRES   REMARKS
ROCKFORD       CLOUDY    69  67  93 CALM      30.14R
FREEPORT*      FOG       62  62  99 CALM      30.16R VSB 1/4
ROCHELLE*      FOG       67  67  99 CALM      30.13S VSB 1/4
DE KALB*       CLEAR     68  68  99 CALM      30.14S FOG
$$

ILZ005-006-012>014-019>023-281000-
NORTHEAST ILLINOIS

CITY           SKY/WX    TMP DP  RH WIND       PRES   REMARKS
CHICAGO-OHARE  CLOUDY    73  69  87 NW3       30.13R
CHICAGO-MIDWAY PTCLDY    75  71  87 W3        30.12R
AURORA         CLEAR     68  67  96 CALM      30.12F
LANSING*       MOCLDY    71  71 100 S5        30.14R
JOLIET*        PTCLDY    72  72  99 CALM      30.13S FOG
WAUKEGAN       CLOUDY    69  68  96 NW3       30.12S FOG
DUPAGE AIRPORT CLEAR     69  67  93 N5        30.13R
KANKAKEE*      CLOUDY    72  70  95 CALM      30.14R
WHEELING       TSTM      71  69  93 CALM      30.15R
MORRIS*        PTCLDY    71  70  97 SW3       30.11S
ROMEOVILLE*    PTCLDY    70  70 100 S3        30.13S FOG
$$

LMZ740>746-281000-
SOUTHERN LAKE MICHIGAN

STATION/POSITION SKY/WX   TEMP    WIND        PRES    VSBY  WAVE
                          AIR SEA DIR/SP/G                  HT/PER
                          (F)     (DEG/KT/KT) (MB)    (MI)  (FT/S)
SOUTHERN BUOY              72 75  350/ 10/ 12 1019.0          1
WILMETTE HARBOR            71 70  340/  6/ 14   N/A           0
HARRISON CRIB              77     310/  4/  4   N/A
BURNHAM HARBOR             73     280/  1/  4   N/A
CALUMET HARBOR             76     170/  3/  4 1019.3R
BURNS HARBOR               75     200/  4/  9 1020.3R
MICHIGAN CITY              75     180/  4/  4   N/A
MICHIGAN CITY 6N           75 76  180/  4/  6   N/A           0
ST. JOSEPH                 75 75  210/  2/  4 1019.8R         1
$$

ILZ025>027-034>036-040-047-049-050-058-095>099-281000-
WEST-CENTRAL ILLINOIS

CITY           SKY/WX    TMP DP  RH WIND       PRES   REMARKS
QUINCY         CLEAR     71  71 100 CALM      30.10S
GALESBURG*       N/A     69  69  99 CALM      30.11S FOG
MACOMB*        PTCLDY    68  68  99 CALM      30.13S
JACKSONVILLE*  MOCLDY    71  70  96 CALM      30.10F
PITTSFIELD*    CLOUDY    72  70  96 W3        30.12S
$$

ILZ028>032-037-038-041>044-048-051>054-059>061-281000-
CENTRAL ILLINOIS

CITY           SKY/WX    TMP DP  RH WIND       PRES   REMARKS
PONTIAC        PTCLDY    70  70 100 CALM      30.13S
BLOOMINGTON    CLOUDY    72  70  93 S6        30.14S
DECATUR        PTCLDY    71  69  93 NW5       30.13S
PEORIA         CLEAR     71  71 100 SE5       30.11S
LACON*         PTCLDY    69  69  97 E3        30.11S FOG
LINCOLN*       CLOUDY    72  72  99 CALM      30.12S
SPRINGFIELD    CLOUDY    76  73  91 CALM      30.12S THUNDER
TAYLORVILLE    CLOUDY    70  70  99 CALM      30.13R FOG
$$

ILZ033-039-045-046-055>057-062-063-281000-
EAST-CENTRAL ILLINOIS

CITY           SKY/WX    TMP DP  RH WIND       PRES   REMARKS
CHAMPAIGN      CLEAR     69  67  93 CALM      30.13F
RANTOUL*       PTCLDY    73  71  94 CALM      30.14S
MATTOON        CLEAR     73  71  93 S6        30.11S
PARIS*         CLEAR     69  69 100 CALM      30.14R FOG
$$

ILZ079-100>102-281000-
SOUTHWEST ILLINOIS

CITY           SKY/WX    TMP DP  RH WIND       PRES   REMARKS
ALTON          FOG       69  68  99 CALM      30.11F VSB 3/4
BELLEVILLE     PTCLDY    72  72 100 NW2       30.10R
CAHOKIA*       PTCLDY    71  70  96 CALM      30.10S FOG
SPARTA*        CLEAR     73  72  99 CALM      30.11S
$$

ILZ064>066-069>071-074>076-080>082-084>086-088>090-092>094-281000-
SOUTH-CENTRAL ILLINOIS

CITY           SKY/WX    TMP DP  RH WIND       PRES   REMARKS
CARBONDALE     FOG       71  69  93 CALM      30.10S VSB 1/4
CAIRO*           N/A     70  70 100 CALM      30.09S FOG
EFFINGHAM*     CLEAR     70  70 100 CALM      30.13S FOG
MARION         FOG       73  72  94 CALM      30.11R VSB 1/4
MT. VERNON     CLEAR     70  64  83 CALM      30.11F
CENTRALIA*     PTCLDY    71  71 100 CALM      30.10S FOG
SALEM*         FOG       73  71  95 CALM      30.12S VSB 1
METROPOLIS*    CLEAR     73  72  98 CALM      30.10S FOG
$$

ILZ067-068-072-073-078-083-087-091-281000-
SOUTHEAST ILLINOIS

CITY           SKY/WX    TMP DP  RH WIND       PRES   REMARKS
LAWRENCEVILLE  CLEAR     73  72  96 NE5       30.12R FOG
FLORA*         PTCLDY    71  70  96 CALM      30.12R FOG
FAIRFIELD*     CLEAR     71  71 100 CALM      30.11R FOG
HARRISBURG*    CLEAR     72  72 100 CALM      30.10F FOG
ROBINSON*      FOG       67  67 100 CALM      30.13S VSB 1/4
CARMI*         CLEAR     72  72 100 CALM      30.10S FOG
$$

ABBREVIATIONS USED IN REMARKS
   TC - TEMPERATURE IN CELSIUS
  WCI - WIND CHILL INDEX
   HX - HEAT INDEX
  VSB - VISIBILITY
$$





USA.gov is the U.S. government's official web portal to all federal, state and local government web resources and services.